• In France
  • List of Countries
  • For 7 days
  • Water Temperature
  • Satellite Maps
  • Weather Map
  • Weather Widgets
  • user-avatar
    Login

    Hourly Weather Tunja

    Today, 13 December, Wednesday

    Time Temperature Precipitation Wind Pressure Humidity
    00:00 +10°C° 0.2 mm 1 mps 549 mmHg 97%
    01:00 +9°C° 0 mm 1 mps 549 mmHg 96%
    02:00 +9°C° 0 mm 1 mps 548 mmHg 96%
    03:00 +9°C° 0 mm 1 mps 548 mmHg 95%
    04:00 +9°C° 0 mm 1 mps 548 mmHg 95%
    05:00 +9°C° 0 mm 1 mps 549 mmHg 94%
    06:00 +10°C° 0 mm 1 mps 549 mmHg 92%
    07:00 +10°C° 0 mm 1 mps 550 mmHg 91%
    08:00 +12°C° 0 mm 1 mps 551 mmHg 81%
    09:00 +15°C° 0 mm 1 mps 553 mmHg 71%
    10:00 +18°C° 0 mm 1 mps 554 mmHg 62%
    11:00 +18°C° 0.2 mm 1 mps 554 mmHg 64%
    12:00 +18°C° 0.2 mm 1 mps 553 mmHg 65%
    13:00 +18°C° 0.2 mm 1 mps 552 mmHg 67%
    14:00 +18°C° 0.4 mm 1 mps 552 mmHg 71%
    15:00 +16°C° 0.4 mm 1 mps 551 mmHg 75%
    16:00 +16°C° 0.4 mm 1 mps 550 mmHg 79%
    17:00 +14°C° 0.2 mm 1 mps 550 mmHg 85%
    18:00 +12°C° 0.2 mm 0 mps 549 mmHg 92%
    19:00 +10°C° 0.2 mm 0 mps 548 mmHg 98%
    20:00 +10°C° 0.1 mm 0 mps 549 mmHg 98%
    21:00 +10°C° 0.1 mm 0 mps 549 mmHg 98%
    22:00 +10°C° 0.1 mm 0 mps 550 mmHg 98%
    23:00 +10°C° 0.1 mm 0 mps 549 mmHg 98%

    Tomorrow, 14 December, Thursday

    Time Temperature Precipitation Wind Pressure Humidity
    00:00 +10°C° 0.1 mm 0 mps 549 mmHg 98%
    01:00 +9°C° 0.1 mm 0 mps 548 mmHg 98%
    02:00 +9°C° 0.1 mm 0 mps 548 mmHg 97%
    03:00 +9°C° 0.1 mm 0 mps 548 mmHg 97%
    04:00 +9°C° 0.1 mm 0 mps 548 mmHg 96%
    05:00 +11°C° 0 mm 1 mps 549 mmHg 95%
    06:00 +11°C° 0 mm 1 mps 549 mmHg 94%
    07:00 +11°C° 0 mm 1 mps 549 mmHg 92%
    08:00 +13°C° 0 mm 1 mps 551 mmHg 81%
    09:00 +15°C° 0 mm 2 mps 552 mmHg 71%
    10:00 +17°C° 0 mm 2 mps 553 mmHg 60%
    11:00 +18°C° 0 mm 2 mps 553 mmHg 55%
    12:00 +19°C° 0 mm 2 mps 553 mmHg 51%
    13:00 +20°C° 0 mm 3 mps 552 mmHg 47%
    14:00 +19°C° 0.1 mm 2 mps 552 mmHg 53%
    15:00 +18°C° 0.1 mm 2 mps 551 mmHg 59%
    16:00 +17°C° 0.1 mm 2 mps 550 mmHg 65%
    17:00 +14°C° 0.2 mm 2 mps 549 mmHg 74%
    18:00 +12°C° 0.2 mm 1 mps 548 mmHg 84%
    19:00 +10°C° 0.2 mm 1 mps 548 mmHg 93%
    20:00 +10°C° 0 mm 1 mps 548 mmHg 93%
    21:00 +9°C° 0 mm 1 mps 548 mmHg 93%
    22:00 +9°C° 0 mm 1 mps 549 mmHg 93%
    23:00 +9°C° 0 mm 1 mps 548 mmHg 92%

    Day after tomorrow, 15 December, Friday

    Time Temperature Precipitation Wind Pressure Humidity
    00:00 +8°C° 0 mm 1 mps 548 mmHg 92%
    01:00 +8°C° 0 mm 1 mps 547 mmHg 91%
    02:00 +8°C° 0 mm 1 mps 547 mmHg 90%
    03:00 +8°C° 0 mm 1 mps 547 mmHg 90%
    04:00 +7°C° 0 mm 1 mps 547 mmHg 89%
    05:00 +8°C° 0 mm 1 mps 547 mmHg 87%
    06:00 +9°C° 0 mm 1 mps 548 mmHg 84%
    07:00 +10°C° 0 mm 1 mps 549 mmHg 82%
    08:00 +12°C° 0 mm 2 mps 550 mmHg 73%
    09:00 +15°C° 0 mm 2 mps 552 mmHg 64%
    10:00 +18°C° 0 mm 2 mps 554 mmHg 55%
    11:00 +18°C° 0.1 mm 2 mps 553 mmHg 56%
    12:00 +18°C° 0.1 mm 2 mps 552 mmHg 58%
    13:00 +18°C° 0.1 mm 2 mps 552 mmHg 59%
    14:00 +17°C° 0.2 mm 2 mps 551 mmHg 65%
    15:00 +17°C° 0.2 mm 2 mps 550 mmHg 71%
    16:00 +16°C° 0.2 mm 1 mps 549 mmHg 76%
    17:00 +14°C° 0.2 mm 1 mps 549 mmHg 83%
    18:00 +13°C° 0.2 mm 1 mps 548 mmHg 89%
    19:00 +11°C° 0.2 mm 1 mps 548 mmHg 96%
    20:00 +11°C° 0 mm 1 mps 548 mmHg 96%
    21:00 +10°C° 0 mm 1 mps 548 mmHg 96%
    22:00 +10°C° 0 mm 1 mps 549 mmHg 96%
    23:00 +10°C° 0 mm 1 mps 548 mmHg 95%

    16 December, Saturday

    Time Temperature Precipitation Wind Pressure Humidity
    00:00 +10°C° 0 mm 1 mps 548 mmHg 95%
    01:00 +9°C° 0 mm 1 mps 548 mmHg 95%
    02:00 +9°C° 0 mm 1 mps 547 mmHg 94%
    03:00 +9°C° 0 mm 1 mps 547 mmHg 94%
    04:00 +9°C° 0 mm 1 mps 547 mmHg 93%
    05:00 +9°C° 0 mm 1 mps 548 mmHg 92%
    06:00 +10°C° 0 mm 1 mps 548 mmHg 90%
    07:00 +10°C° 0 mm 1 mps 549 mmHg 88%
    08:00 +13°C° 0 mm 1 mps 550 mmHg 79%
    09:00 +15°C° 0 mm 1 mps 552 mmHg 69%
    10:00 +18°C° 0 mm 1 mps 553 mmHg 60%
    11:00 +19°C° 0.1 mm 1 mps 553 mmHg 60%
    12:00 +19°C° 0.1 mm 1 mps 552 mmHg 61%
    13:00 +19°C° 0.1 mm 1 mps 551 mmHg 61%
    14:00 +19°C° 0.1 mm 1 mps 551 mmHg 66%
    15:00 +18°C° 0.1 mm 1 mps 550 mmHg 70%
    16:00 +16°C° 0.1 mm 1 mps 549 mmHg 75%
    17:00 +15°C° 0.2 mm 1 mps 549 mmHg 82%
    18:00 +12°C° 0.2 mm 0 mps 548 mmHg 89%
    19:00 +10°C° 0.2 mm 0 mps 548 mmHg 96%
    20:00 +10°C° 0.1 mm 0 mps 548 mmHg 96%
    21:00 +10°C° 0.1 mm 0 mps 548 mmHg 96%
    22:00 +9°C° 0.1 mm 0 mps 548 mmHg 96%
    23:00 +9°C° 0 mm 0 mps 548 mmHg 95%

    17 December, Sunday

    Time Temperature Precipitation Wind Pressure Humidity
    00:00 +9°C° 0 mm 0 mps 548 mmHg 95%
    01:00 +10°C° 0 mm 1 mps 548 mmHg 94%
    02:00 +10°C° 0 mm 1 mps 548 mmHg 94%
    03:00 +10°C° 0 mm 1 mps 547 mmHg 94%
    04:00 +9°C° 0 mm 1 mps 547 mmHg 94%
    05:00 +9°C° 0 mm 1 mps 548 mmHg 92%
    06:00 +10°C° 0 mm 1 mps 548 mmHg 90%
    07:00 +10°C° 0 mm 1 mps 549 mmHg 89%
    08:00 +13°C° 0 mm 1 mps 550 mmHg 76%
    09:00 +15°C° 0 mm 1 mps 552 mmHg 64%
    10:00 +19°C° 0 mm 1 mps 553 mmHg 52%
    11:00 +19°C° 0 mm 2 mps 553 mmHg 49%
    12:00 +19°C° 0 mm 2 mps 553 mmHg 47%
    13:00 +20°C° 0 mm 2 mps 552 mmHg 44%
    14:00 +19°C° 0 mm 2 mps 551 mmHg 49%
    15:00 +18°C° 0 mm 2 mps 551 mmHg 54%
    16:00 +17°C° 0 mm 2 mps 550 mmHg 59%
    17:00 +15°C° 0 mm 2 mps 549 mmHg 70%
    18:00 +12°C° 0 mm 1 mps 548 mmHg 80%
    19:00 +10°C° 0 mm 1 mps 547 mmHg 90%
    20:00 +9°C° 0 mm 1 mps 547 mmHg 89%
    21:00 +9°C° 0 mm 1 mps 547 mmHg 88%
    22:00 +8°C° 0 mm 1 mps 547 mmHg 87%
    23:00 +8°C° 0 mm 1 mps 547 mmHg 86%

    18 December, Monday

    Time Temperature Precipitation Wind Pressure Humidity
    00:00 +7°C° 0 mm 1 mps 546 mmHg 84%
    01:00 +7°C° 0 mm 1 mps 546 mmHg 82%
    02:00 +6°C° 0 mm 1 mps 545 mmHg 79%
    03:00 +6°C° 0 mm 1 mps 545 mmHg 75%
    04:00 +6°C° 0 mm 1 mps 545 mmHg 72%
    05:00 +6°C° 0 mm 1 mps 546 mmHg 67%
    06:00 +6°C° 0 mm 2 mps 547 mmHg 63%
    07:00 +7°C° 0 mm 2 mps 548 mmHg 59%
    08:00 +10°C° 0 mm 2 mps 549 mmHg 50%
    09:00 +14°C° 0 mm 2 mps 551 mmHg 42%
    10:00 +18°C° 0 mm 2 mps 553 mmHg 33%
    11:00 +19°C° 0 mm 2 mps 553 mmHg 33%
    12:00 +19°C° 0 mm 2 mps 553 mmHg 33%
    13:00 +20°C° 0 mm 3 mps 552 mmHg 33%
    14:00 +19°C° 0 mm 2 mps 552 mmHg 37%
    15:00 +18°C° 0 mm 2 mps 551 mmHg 42%
    16:00 +18°C° 0 mm 2 mps 550 mmHg 46%
    17:00 +15°C° 0 mm 2 mps 549 mmHg 58%
    18:00 +12°C° 0 mm 1 mps 548 mmHg 69%
    19:00 +9°C° 0 mm 1 mps 547 mmHg 80%
    20:00 +8°C° 0 mm 1 mps 547 mmHg 79%
    21:00 +8°C° 0 mm 1 mps 547 mmHg 77%
    22:00 +7°C° 0 mm 1 mps 547 mmHg 75%
    23:00 +7°C° 0 mm 1 mps 547 mmHg 75%
    Show more